Voltar ao catálogo

COSMOS 917 DEB

AtivoHEO
NORAD 27884·DEBRIS·🇷🇺 Russia

Lançado Jun 16, 1977 de Plesetsk Cosmodrome

Loading…

Próximas Passagens (próximas 24 horas)

TLE

AtualizadoSource: Space-Track

Época: Sep 13, 2026, 03:50 UTC

1 27884U 77047G   26256.16008912  .00000446  00000-0  13645-2 0  9997
2 27884  59.9027 194.3993 7461990  70.5963 351.2906  2.01925117175655

Acompanhe COSMOS 917 DEB em tempo real com AllMySat

Download on the App Store